Baker, MT

6:50 PM MST on December 17, 2017 (GMT -0700)
Baker Municipal

Weather History for KBHK - January, 2013

Change the Weather History Date:

Monday, January 7, 2013

  Actual Average Record
Temperature  
Mean Temperature 26 °F -  
Max Temperature 34 °F 36 °F 52 °F (2003)
Min Temperature 19 °F 13 °F -25 °F (2015)
Degree Days  
Heating Degree Days 38    
Moisture  
Dew Point 17 °F    
Average Humidity 65    
Maximum Humidity 71    
Minimum Humidity 59    
Precipitation  
Precipitation 0.00 in - - ()
Sea Level Pressure  
Sea Level Pressure 29.89 in    
Wind  
Wind Speed 10 mph (SW)    
Max Wind Speed 15 mph    
Max Gust Speed -    
Visibility 10 miles    
Events      
Averages and records for this station are not official NWS values.
T = Trace of Precipitation, MM = Missing Value Source: NWS Daily Summary

Daily Weather History Graph

Daily Weather History Graph

Search for Another Location

Airport or City:

Trip Planner

Search our weather history database for the weather conditions in past years. The results will help you decide how hot, cold, wet, or windy it might be!

Date:

Astronomy

Jan. 07, 2013 Rise Set
Actual Time 7:39 AM MST 4:27 PM MST
Civil Twilight 7:05 AM MST 5:02 PM MST
Nautical Twilight 6:27 AM MST 5:39 PM MST
Astronomical Twilight 5:51 AM MST 6:16 PM MST
Moon 3:02 AM MST (1/7) 12:43 PM MST (1/7)
Length of Visible Light 9h 56m
Length of Day
8h 48m
Waning Crescent, 22% of the Moon is Illuminated
Jan 7
Waning Crescent
Jan 11
New
Jan 18
First Quarter
Jan 26
Full
Feb 3
Last Quarter

Hourly Weather History & Observations

Time (MST) Temp. Windchill Dew Point Humidity Pressure Visibility Wind Dir Wind Speed Gust Speed Precip Events Conditions
12:51 AM 25.0 °F 14.8 °F 16.0 °F 69% 29.92 in 10.0 mi WSW 10.4 mph - N/A   Partly Cloudy
1:51 AM 21.0 °F 10.6 °F 12.9 °F 71% 29.93 in 10.0 mi West 9.2 mph - N/A   Clear
2:51 AM 21.9 °F 11.0 °F 12.9 °F 68% 29.93 in 10.0 mi West 10.4 mph - N/A   Clear
3:51 AM 25.0 °F 14.2 °F 12.9 °F 60% 29.93 in 10.0 mi West 11.5 mph - N/A   Clear
4:51 AM 25.0 °F 12.6 °F 14.0 °F 63% 29.94 in 10.0 mi WSW 15.0 mph - N/A   Clear
5:51 AM 21.9 °F 12.5 °F 12.9 °F 68% 29.95 in 10.0 mi WSW 8.1 mph - N/A   Clear
6:51 AM 21.9 °F 13.4 °F 12.9 °F 68% 29.96 in 10.0 mi West 6.9 mph - N/A   Clear
7:51 AM 19.9 °F 10.1 °F 12.0 °F 71% 29.96 in 10.0 mi West 8.1 mph - N/A   Partly Cloudy
9:51 AM 28.9 °F 21.1 °F 18.0 °F 64% 29.97 in 10.0 mi West 8.1 mph - N/A   Overcast
10:51 AM 30.9 °F 22.8 °F 19.9 °F 64% 29.96 in 10.0 mi WSW 9.2 mph - N/A   Overcast
11:51 AM 32.0 °F 23.0 °F 21.0 °F 64% 29.94 in 10.0 mi SW 11.5 mph - N/A   Overcast
12:51 PM 34.0 °F 26.6 °F 21.0 °F 59% 29.91 in 10.0 mi SW 9.2 mph - N/A   Overcast
1:51 PM 34.0 °F 26.6 °F 21.9 °F 61% 29.91 in 10.0 mi WSW 9.2 mph - N/A   Overcast
2:51 PM 33.1 °F 27.7 °F 21.9 °F 64% 29.91 in 10.0 mi West 5.8 mph - N/A   Overcast
3:51 PM 33.1 °F 28.7 °F 21.9 °F 64% 29.89 in 10.0 mi SW 4.6 mph - N/A   Overcast
4:51 PM 30.0 °F - 21.0 °F 69% 29.88 in 10.0 mi Calm Calm - N/A   Mostly Cloudy
5:51 PM 26.1 °F 16.2 °F 16.0 °F 66% 29.88 in 10.0 mi South 10.4 mph - N/A   Clear
6:51 PM 23.0 °F 11.1 °F 14.0 °F 68% 29.87 in 10.0 mi South 12.7 mph - N/A   Clear
7:51 PM 23.0 °F 11.7 °F 14.0 °F 68% 29.84 in 10.0 mi South 11.5 mph - N/A   Clear
8:51 PM 28.9 °F 17.7 °F 18.0 °F 64% 29.80 in 10.0 mi South 15.0 mph - N/A   Overcast
9:51 PM 28.0 °F 19.3 °F 19.0 °F 69% 29.75 in 10.0 mi SE 9.2 mph - N/A   Overcast
10:51 PM 32.0 °F 21.6 °F 19.0 °F 59% 29.73 in 10.0 mi South 15.0 mph - N/A   Overcast
11:51 PM 33.1 °F 24.9 °F 19.9 °F 59% 29.70 in 10.0 mi SW 10.4 mph - N/A   Overcast